,,Stat6,,Stat2,,Stat8,,Stat9,,Stat10,,Wind1,,Wind1,
time,status,PA1M_AVG,status,PR1M_SUM,status,RH1M_AVG,status,SR1M_AVG,status,TA1M_AVG,status,W1dAve1m,status,W1sAve1m,
2008-12-08, 00:00:00,VALID,919.6,VALID,0,VALID,100,VALID,-0.101885,VALID,18.4858,VALID,18,VALID,0,
2008-12-08, 00:01:00,VALID,919.591,VALID,0,VALID,100,VALID,-0.0679233,VALID,18.4895,VALID,24,VALID,0,
2008-12-08, 00:02:00,VALID,919.586,VALID,0,VALID,100,VALID,-0.0509425,VALID,18.4661,VALID,28,VALID,0.282885,
2008-12-08, 00:03:00,VALID,919.586,VALID,0,VALID,100,VALID,-0.0849042,VALID,18.4731,VALID,29,VALID,0.286014,
2008-12-08, 00:04:00,VALID,919.585,VALID,0,VALID,100,VALID,-0.0849042,VALID,18.4728,VALID,20,VALID,0,
2008-12-08, 00:05:00,VALID,919.571,VALID,0,VALID,100,VALID,-0.0849042,VALID,18.4796,VALID,35,VALID,0.201079,
2008-12-08, 00:06:00,VALID,919.556,VALID,0,VALID,100,VALID,-0.0679233,VALID,18.4861,VALID,30,VALID,0.133789,
2008-12-08, 00:07:00,VALID,919.544,VALID,0,VALID,100,VALID,-0.0679233,VALID,18.4886,VALID,10,VALID,0.068201,
2008-12-08, 00:08:00,VALID,919.532,VALID,0,VALID,100,VALID,0,VALID,18.4717,VALID,17,VALID,0.00508721,
2008-12-08, 00:09:00,VALID,919.522,VALID,0,VALID,100,VALID,0,VALID,18.4816,VALID,33,VALID,0.15,
2008-12-08, 00:10:00,VALID,919.529,VALID,0,VALID,100,VALID,0.0339617,VALID,18.4877,VALID,34,VALID,0.122396,
2008-12-08, 00:11:00,VALID,919.519,VALID,0,VALID,100,VALID,0,VALID,18.4911,VALID,318,VALID,0,
2008-12-08, 00:12:00,VALID,919.519,VALID,0,VALID,100,VALID,0.0339617,VALID,18.4847,VALID,4,VALID,0,
2008-12-08, 00:13:00,VALID,919.505,VALID,0,VALID,100,VALID,0.0339617,VALID,18.4847,VALID,17,VALID,0,
2008-12-08, 00:14:00,VALID,919.484,VALID,0,VALID,100,VALID,0.0339617,VALID,18.4844,VALID,28,VALID,0.0897485,
2008-12-08, 00:15:00,VALID,919.47,VALID,0,VALID,100,VALID,0.0169808,VALID,18.4909,VALID,32,VALID,0.186979,
2008-12-08, 00:16:00,VALID,919.457,VALID,0,VALID,100,VALID,0.0509425,VALID,18.5138,VALID,25,VALID,0.240885,
2008-12-08, 00:17:00,VALID,919.449,VALID,0,VALID,100,VALID,0.0339617,VALID,18.5074,VALID,30,VALID,0.273643,
2008-12-08, 00:18:00,VALID,919.434,VALID,0.2,VALID,100,VALID,0.0509425,VALID,18.5069,VALID,42,VALID,0.0487805,
2008-12-08, 00:19:00,VALID,919.408,VALID,0,VALID,100,VALID,0.0679233,VALID,18.5002,VALID,35,VALID,0.305959,
2008-12-08, 00:20:00,VALID,919.398,VALID,0,VALID,100,VALID,0.0849042,VALID,18.5199,VALID,34,VALID,0.1639,
2008-12-08, 00:21:00,VALID,919.374,VALID,0,VALID,100,VALID,0.0169808,VALID,18.5138,VALID,30,VALID,0.116122,
2008-12-08, 00:22:00,VALID,919.36,VALID,0,VALID,100,VALID,-0.0339617,VALID,18.5208,VALID,25,VALID,0.157774,
2008-12-08, 00:23:00,VALID,919.34,VALID,0,VALID,100,VALID,-0.0849042,VALID,18.5088,VALID,24,VALID,0.0193452,
2008-12-08, 00:24:00,VALID,919.319,VALID,0,VALID,100,VALID,-0.0849042,VALID,18.499,VALID,26,VALID,0.516211,
2008-12-08, 00:25:00,VALID,919.312,VALID,0,VALID,100,VALID,-0.0679233,VALID,18.4858,VALID,13,VALID,1.0585,
2008-12-08, 00:26:00,VALID,919.29,VALID,0,VALID,100,VALID,-0.0849042,VALID,18.4636,VALID,14,VALID,0.314215,
2008-12-08, 00:27:00,VALID,919.297,VALID,0,VALID,100,VALID,-0.101885,VALID,18.4536,VALID,21,VALID,0.80564,
2008-12-08, 00:28:00,VALID,919.277,VALID,0,VALID,100,VALID,-0.101885,VALID,18.4698,VALID,27,VALID,0.149009,
2008-12-08, 00:29:00,VALID,919.278,VALID,0,VALID,100,VALID,-0.0679233,VALID,18.4731,VALID,29,VALID,0.283736,
2008-12-08, 00:30:00,VALID,919.28,VALID,0,VALID,100,VALID,-0.0849042,VALID,18.4731,VALID,18,VALID,0.967448,
2008-12-08, 00:31:00,VALID,919.27,VALID,0,VALID,100,VALID,-0.0679233,VALID,18.4634,VALID,7,VALID,0.276677,
2008-12-08, 00:32:00,VALID,919.271,VALID,0,VALID,100,VALID,-0.101885,VALID,18.4501,VALID,18,VALID,0.210574,
2008-12-08, 00:33:00,VALID,919.262,VALID,0,VALID,100,VALID,-0.101885,VALID,18.4501,VALID,24,VALID,1.07943,
2008-12-08, 00:34:00,VALID,919.253,VALID,0.2,VALID,100,VALID,-0.0679233,VALID,18.4569,VALID,26,VALID,1.02046,
2008-12-08, 00:35:00,VALID,919.255,VALID,0,VALID,100,VALID,-0.0509425,VALID,18.4731,VALID,27,VALID,0.924361,
2008-12-08, 00:36:00,VALID,919.232,VALID,0,VALID,100,VALID,-0.0849042,VALID,18.4858,VALID,21,VALID,0.451601,
2008-12-08, 00:37:00,VALID,919.22,VALID,0,VALID,100,VALID,-0.0849042,VALID,18.4856,VALID,22,VALID,0.478423,
2008-12-08, 00:38:00,VALID,919.193,VALID,0,VALID,100,VALID,-0.0509425,VALID,18.4464,VALID,18,VALID,0.975543,
2008-12-08, 00:39:00,VALID,919.181,VALID,0,VALID,100,VALID,-0.0849042,VALID,18.4471,VALID,23,VALID,1.19695,
2008-12-08, 00:40:00,VALID,919.176,VALID,0,VALID,100,VALID,-0.0509425,VALID,18.4506,VALID,23,VALID,1.23029,
2008-12-08, 00:41:00,VALID,919.158,VALID,0,VALID,100,VALID,-0.0849042,VALID,18.4437,VALID,30,VALID,0.424055,
2008-12-08, 00:42:00,VALID,919.159,VALID,0,VALID,100,VALID,-0.0679233,VALID,18.4501,VALID,19,VALID,0.602493,
2008-12-08, 00:43:00,VALID,919.14,VALID,0,VALID,100,VALID,-0.101885,VALID,18.4504,VALID,37,VALID,0.0418527,
2008-12-08, 00:44:00,VALID,919.116,VALID,0,VALID,100,VALID,-0.0679233,VALID,18.4504,VALID,32,VALID,0.182546,
2008-12-08, 00:45:00,VALID,919.095,VALID,0,VALID,100,VALID,-0.0679233,VALID,18.4504,VALID,15,VALID,0.328311,
2008-12-08, 00:46:00,VALID,919.08,VALID,0.2,VALID,100,VALID,-0.0509425,VALID,18.4302,VALID,23,VALID,1.02858,
2008-12-08, 00:47:00,VALID,919.063,VALID,0,VALID,100,VALID,-0.0509425,VALID,18.4372,VALID,29,VALID,0.775,
2008-12-08, 00:48:00,VALID,919.054,VALID,0,VALID,100,VALID,-0.0849042,VALID,18.4374,VALID,20,VALID,0.0118056,
2008-12-08, 00:49:00,VALID,919.043,VALID,0,VALID,100,VALID,-0.0849042,VALID,18.4369,VALID,24,VALID,0.84304,
2008-12-08, 00:50:00,VALID,919.037,VALID,0,VALID,100,VALID,-0.101885,VALID,18.4571,VALID,21,VALID,0.487165,
2008-12-08, 00:51:00,VALID,919.011,VALID,0,VALID,100,VALID,-0.101885,VALID,18.4404,VALID,26,VALID,0.287791,
2008-12-08, 00:52:00,VALID,919.008,VALID,0,VALID,100,VALID,-0.0679233,VALID,18.4272,VALID,26,VALID,0.314453,
2008-12-08, 00:53:00,VALID,918.989,VALID,0,VALID,100,VALID,-0.0849042,VALID,18.4471,VALID,27,VALID,0.087936,
2008-12-08, 00:54:00,VALID,918.973,VALID,0,VALID,100,VALID,-0.0679233,VALID,18.427,VALID,30,VALID,0.759448,
2008-12-08, 00:55:00,VALID,918.964,VALID,0,VALID,100,VALID,-0.0679233,VALID,18.4307,VALID,24,VALID,0.237424,
2008-12-08, 00:56:00,VALID,918.951,VALID,0,VALID,100,VALID,-0.0509425,VALID,18.417,VALID,26,VALID,1.00273,
2008-12-08, 00:57:00,VALID,918.941,VALID,0,VALID,100,VALID,-0.101885,VALID,18.4309,VALID,29,VALID,1.10671,
2008-12-08, 00:58:00,VALID,918.932,VALID,0,VALID,100,VALID,-0.0339617,VALID,18.4337,VALID,23,VALID,0.0801711,
2008-12-08, 00:59:00,VALID,918.921,VALID,0,VALID,100,VALID,-0.101885,VALID,18.4302,VALID,24,VALID,0.00120192,
2008-12-08, 01:00:00,VALID,918.908,VALID,0,VALID,100,VALID,-0.0509425,VALID,18.4135,VALID,22,VALID,0.321584,
2008-12-08, 01:01:00,VALID,918.897,VALID,0,VALID,100,VALID,-0.0509425,VALID,18.4103,VALID,13,VALID,0.0486919,
2008-12-08, 01:02:00,VALID,918.875,VALID,0,VALID,100,VALID,-0.0509425,VALID,18.4203,VALID,33,VALID,0.311967,
2008-12-08, 01:03:00,VALID,918.874,VALID,0,VALID,100,VALID,-0.101885,VALID,18.4138,VALID,22,VALID,0.0558308,
2008-12-08, 01:04:00,VALID,918.858,VALID,0,VALID,100,VALID,-0.0849042,VALID,18.4177,VALID,21,VALID,0.0012429,
2008-12-08, 01:05:00,VALID,918.85,VALID,0,VALID,100,VALID,-0.0509425,VALID,18.401,VALID,31,VALID,0,
2008-12-08, 01:06:00,VALID,918.857,VALID,0,VALID,100,VALID,-0.0339617,VALID,18.4077,VALID,26,VALID,0.0323401,
2008-12-08, 01:07:00,VALID,918.838,VALID,0,VALID,100,VALID,-0.0339617,VALID,18.4108,VALID,30,VALID,0.395089,
2008-12-08, 01:08:00,VALID,918.822,VALID,0,VALID,100,VALID,-0.0849042,VALID,18.4277,VALID,29,VALID,0.416726,
2008-12-08, 01:09:00,VALID,918.793,VALID,0,VALID,100,VALID,-0.101885,VALID,18.4272,VALID,32,VALID,0.555069,
2008-12-08, 01:10:00,VALID,918.786,VALID,0.2,VALID,100,VALID,-0.0849042,VALID,18.427,VALID,28,VALID,0.515807,
2008-12-08, 01:11:00,VALID,918.765,VALID,0,VALID,100,VALID,-0.0509425,VALID,18.4307,VALID,19,VALID,0.540879,
2008-12-08, 01:12:00,VALID,918.752,VALID,0,VALID,100,VALID,-0.0339617,VALID,18.4006,VALID,21,VALID,1.04306,
2008-12-08, 01:13:00,VALID,918.736,VALID,0,VALID,100,VALID,-0.0849042,VALID,18.404,VALID,24,VALID,1.03434,
2008-12-08, 01:14:00,VALID,918.731,VALID,0,VALID,100,VALID,-0.0849042,VALID,18.3978,VALID,28,VALID,1.27788,
2008-12-08, 01:15:00,VALID,918.723,VALID,0,VALID,100,VALID,-0.0509425,VALID,18.4274,VALID,29,VALID,1.11843,
2008-12-08, 01:16:00,VALID,918.7,VALID,0,VALID,100,VALID,-0.0849042,VALID,18.424,VALID,26,VALID,1.22246,
2008-12-08, 01:17:00,VALID,918.691,VALID,0,VALID,100,VALID,-0.0509425,VALID,18.42,VALID,35,VALID,0.991461,
2008-12-08, 01:18:00,VALID,918.685,VALID,0,VALID,100,VALID,-0.0679233,VALID,18.4207,VALID,34,VALID,0.403963,
2008-12-08, 01:19:00,VALID,918.682,VALID,0,VALID,100,VALID,-0.0169808,VALID,18.4073,VALID,28,VALID,0.165082,
2008-12-08, 01:20:00,VALID,918.672,VALID,0,VALID,100,VALID,-0.101885,VALID,18.4147,VALID,33,VALID,0.402902,
2008-12-08, 01:21:00,VALID,918.675,VALID,0,VALID,100,VALID,-0.0849042,VALID,18.4147,VALID,24,VALID,0.128452,
2008-12-08, 01:22:00,VALID,918.669,VALID,0,VALID,100,VALID,-0.0849042,VALID,18.4047,VALID,2,VALID,0.0169271,
2008-12-08, 01:23:00,VALID,918.679,VALID,0,VALID,100,VALID,-0.0849042,VALID,18.4082,VALID,20,VALID,0,
2008-12-08, 01:24:00,VALID,918.655,VALID,0,VALID,100,VALID,-0.101885,VALID,18.3918,VALID,31,VALID,0.0289063,
2008-12-08, 01:25:00,VALID,918.642,VALID,0,VALID,100,VALID,-0.0849042,VALID,18.395,VALID,33,VALID,0.0046875,
2008-12-08, 01:26:00,VALID,918.623,VALID,0,VALID,100,VALID,-0.0849042,VALID,18.3915,VALID,27,VALID,0.319041,
2008-12-08, 01:27:00,VALID,918.629,VALID,0,VALID,100,VALID,-0.0679233,VALID,18.3883,VALID,27,VALID,0.248828,
2008-12-08, 01:28:00,VALID,918.616,VALID,0,VALID,100,VALID,-0.0509425,VALID,18.3881,VALID,26,VALID,0.037064,
2008-12-08, 01:29:00,VALID,918.603,VALID,0,VALID,100,VALID,-0.0679233,VALID,18.395,VALID,33,VALID,0.544336,
2008-12-08, 01:30:00,VALID,918.585,VALID,0,VALID,100,VALID,-0.0679233,VALID,18.401,VALID,29,VALID,0.338728,
2008-12-08, 01:31:00,VALID,918.588,VALID,0,VALID,100,VALID,-0.0849042,VALID,18.3913,VALID,31,VALID,0.349219,
2008-12-08, 01:32:00,VALID,918.573,VALID,0,VALID,100,VALID,-0.0679233,VALID,18.3691,VALID,18,VALID,0.113009,
2008-12-08, 01:33:00,VALID,918.578,VALID,0,VALID,100,VALID,-0.0509425,VALID,18.3457,VALID,34,VALID,0.422408,
2008-12-08, 01:34:00,VALID,918.577,VALID,0,VALID,100,VALID,-0.0679233,VALID,18.3526,VALID,29,VALID,0.331101,
2008-12-08, 01:35:00,VALID,918.583,VALID,0,VALID,100,VALID,-0.0509425,VALID,18.3491,VALID,32,VALID,0.00186012,
2008-12-08, 01:36:00,VALID,918.567,VALID,0,VALID,100,VALID,-0.0509425,VALID,18.3691,VALID,23,VALID,0.0333807,
2008-12-08, 01:37:00,VALID,918.562,VALID,0,VALID,100,VALID,-0.0849042,VALID,18.3688,VALID,19,VALID,0.180382,
2008-12-08, 01:38:00,VALID,918.549,VALID,0,VALID,100,VALID,-0.0509425,VALID,18.3691,VALID,22,VALID,0.0065696,
2008-12-08, 01:39:00,VALID,918.533,VALID,0.2,VALID,100,VALID,-0.0849042,VALID,18.3623,VALID,27,VALID,0,
2008-12-08, 01:40:00,VALID,918.514,VALID,0,VALID,100,VALID,-0.0679233,VALID,18.3559,VALID,9,VALID,0,
2008-12-08, 01:41:00,VALID,918.5,VALID,0,VALID,100,VALID,-0.0849042,VALID,18.3531,VALID,17,VALID,0.313689,
2008-12-08, 01:42:00,VALID,918.482,VALID,0,VALID,100,VALID,-0.0849042,VALID,18.3526,VALID,26,VALID,0.577172,
2008-12-08, 01:43:00,VALID,918.478,VALID,0,VALID,100,VALID,-0.101885,VALID,18.3723,VALID,36,VALID,0.0342988,
2008-12-08, 01:44:00,VALID,918.445,VALID,0,VALID,100,VALID,-0.0679233,VALID,18.3751,VALID,29,VALID,0.483803,
2008-12-08, 01:45:00,VALID,918.442,VALID,0,VALID,100,VALID,-0.0679233,VALID,18.3823,VALID,28,VALID,0.0508765,
2008-12-08, 01:46:00,VALID,918.43,VALID,0,VALID,100,VALID,-0.0679233,VALID,18.3593,VALID,11,VALID,0.0752841,
2008-12-08, 01:47:00,VALID,918.438,VALID,0,VALID,100,VALID,-0.0849042,VALID,18.3656,VALID,22,VALID,0.186592,
2008-12-08, 01:48:00,VALID,918.432,VALID,0,VALID,100,VALID,-0.0679233,VALID,18.3589,VALID,24,VALID,0.0109747,
2008-12-08, 01:49:00,VALID,918.439,VALID,0,VALID,100,VALID,-0.101885,VALID,18.3758,VALID,24,VALID,0,
2008-12-08, 01:50:00,VALID,918.418,VALID,0,VALID,100,VALID,-0.0849042,VALID,18.3758,VALID,18,VALID,0.294271,
2008-12-08, 01:51:00,VALID,918.413,VALID,0,VALID,100,VALID,-0.0849042,VALID,18.3688,VALID,23,VALID,0.13299,
2008-12-08, 01:52:00,VALID,918.387,VALID,0,VALID,100,VALID,-0.0849042,VALID,18.3658,VALID,26,VALID,0.340924,
2008-12-08, 01:53:00,VALID,918.39,VALID,0,VALID,100,VALID,-0.118866,VALID,18.3758,VALID,21,VALID,0.0196221,
2008-12-08, 01:54:00,VALID,918.378,VALID,0,VALID,100,VALID,-0.101885,VALID,18.3758,VALID,18,VALID,0,
2008-12-08, 01:55:00,VALID,918.375,VALID,0,VALID,100,VALID,-0.118866,VALID,18.3725,VALID,38,VALID,0,
2008-12-08, 01:56:00,VALID,918.355,VALID,0,VALID,100,VALID,-0.118866,VALID,18.3663,VALID,49,VALID,0,
2008-12-08, 01:57:00,VALID,918.345,VALID,0,VALID,100,VALID,-0.135847,VALID,18.3661,VALID,50,VALID,0,
2008-12-08, 01:58:00,VALID,918.345,VALID,0,VALID,100,VALID,-0.118866,VALID,18.3563,VALID,28,VALID,0.237537,
2008-12-08, 01:59:00,VALID,918.352,VALID,0,VALID,100,VALID,-0.118866,VALID,18.3464,VALID,354,VALID,0,
2008-12-08, 02:00:00,VALID,918.34,VALID,0,VALID,100,VALID,-0.118866,VALID,18.3563,VALID,344,VALID,0,
2008-12-08, 02:01:00,VALID,918.34,VALID,0,VALID,100,VALID,-0.118866,VALID,18.3466,VALID,344,VALID,0,
2008-12-08, 02:02:00,VALID,918.317,VALID,0,VALID,100,VALID,-0.118866,VALID,18.3563,VALID,344,VALID,0,
2008-12-08, 02:03:00,VALID,918.302,VALID,0,VALID,100,VALID,-0.101885,VALID,18.3596,VALID,344,VALID,0,
2008-12-08, 02:04:00,VALID,918.288,VALID,0,VALID,100,VALID,-0.118866,VALID,18.3725,VALID,17,VALID,0,
2008-12-08, 02:05:00,VALID,918.277,VALID,0,VALID,100,VALID,-0.101885,VALID,18.392,VALID,27,VALID,0,
2008-12-08, 02:06:00,VALID,918.253,VALID,0,VALID,100,VALID,-0.135847,VALID,18.3985,VALID,27,VALID,0,
2008-12-08, 02:07:00,VALID,918.222,VALID,0,VALID,100,VALID,-0.0509425,VALID,18.3881,VALID,27,VALID,0,
2008-12-08, 02:08:00,VALID,918.212,VALID,0,VALID,100,VALID,0,VALID,18.3908,VALID,20,VALID,0,
2008-12-08, 02:09:00,VALID,918.194,VALID,0,VALID,100,VALID,-0.0169808,VALID,18.3744,VALID,6,VALID,0,
2008-12-08, 02:10:00,VALID,918.178,VALID,0,VALID,100,VALID,-0.0339617,VALID,18.3744,VALID,13,VALID,0,
2008-12-08, 02:11:00,VALID,918.131,VALID,0,VALID,100,VALID,-0.0509425,VALID,18.3616,VALID,21,VALID,0,
2008-12-08, 02:12:00,VALID,918.127,VALID,0,VALID,100,VALID,-0.0169808,VALID,18.3621,VALID,14,VALID,0.442769,
2008-12-08, 02:13:00,VALID,918.116,VALID,0,VALID,100,VALID,-0.0339617,VALID,18.342,VALID,15,VALID,0.508371,
2008-12-08, 02:14:00,VALID,918.102,VALID,0,VALID,100,VALID,-0.0339617,VALID,18.3552,VALID,25,VALID,0,
2008-12-08, 02:15:00,VALID,918.108,VALID,0,VALID,100,VALID,0,VALID,18.3482,VALID,29,VALID,0.0699405,
2008-12-08, 02:16:00,VALID,918.1,VALID,0,VALID,100,VALID,-0.0339617,VALID,18.3579,VALID,3,VALID,0,
2008-12-08, 02:17:00,VALID,918.079,VALID,0,VALID,100,VALID,0,VALID,18.345,VALID,353,VALID,0.0653409,
2008-12-08, 02:18:00,VALID,918.068,VALID,0,VALID,100,VALID,-0.0169808,VALID,18.345,VALID,17,VALID,0.129179,
2008-12-08, 02:19:00,VALID,918.054,VALID,0.2,VALID,100,VALID,0,VALID,18.342,VALID,21,VALID,0.408296,
2008-12-08, 02:20:00,VALID,918.044,VALID,0,VALID,100,VALID,-0.0169808,VALID,18.3322,VALID,27,VALID,0.116629,
2008-12-08, 02:21:00,VALID,918.031,VALID,0,VALID,100,VALID,-0.0169808,VALID,18.3452,VALID,18,VALID,0,
2008-12-08, 02:22:00,VALID,918.022,VALID,0,VALID,100,VALID,0,VALID,18.3387,VALID,15,VALID,0,
2008-12-08, 02:23:00,VALID,918.009,VALID,0,VALID,100,VALID,-0.0169808,VALID,18.3519,VALID,3,VALID,0.880394,
2008-12-08, 02:24:00,VALID,918.009,VALID,0,VALID,100,VALID,-0.0169808,VALID,18.3452,VALID,21,VALID,0.730273,
2008-12-08, 02:25:00,VALID,918.003,VALID,0,VALID,100,VALID,-0.0509425,VALID,18.3489,VALID,7,VALID,0.00479403,
2008-12-08, 02:26:00,VALID,917.981,VALID,0,VALID,100,VALID,-0.0169808,VALID,18.3355,VALID,17,VALID,0.00218023,
2008-12-08, 02:27:00,VALID,917.98,VALID,0,VALID,100,VALID,-0.0339617,VALID,18.3322,VALID,31,VALID,0,
2008-12-08, 02:28:00,VALID,917.973,VALID,0,VALID,100,VALID,-0.0339617,VALID,18.3355,VALID,37,VALID,0,
2008-12-08, 02:29:00,VALID,917.97,VALID,0,VALID,100,VALID,-0.0339617,VALID,18.3389,VALID,37,VALID,0,
2008-12-08, 02:30:00,VALID,917.962,VALID,0,VALID,100,VALID,-0.0169808,VALID,18.3387,VALID,37,VALID,0,
2008-12-08, 02:31:00,VALID,917.959,VALID,0,VALID,100,VALID,0,VALID,18.3454,VALID,37,VALID,0,
2008-12-08, 02:32:00,VALID,917.953,VALID,0,VALID,100,VALID,0,VALID,18.3549,VALID,30,VALID,0,
2008-12-08, 02:33:00,VALID,917.955,VALID,0,VALID,100,VALID,-0.0169808,VALID,18.3549,VALID,29,VALID,0,
2008-12-08, 02:34:00,VALID,917.935,VALID,0,VALID,100,VALID,0,VALID,18.3549,VALID,33,VALID,0,
2008-12-08, 02:35:00,VALID,917.91,VALID,0,VALID,100,VALID,-0.0169808,VALID,18.3515,VALID,33,VALID,0,
2008-12-08, 02:36:00,VALID,917.891,VALID,0,VALID,100,VALID,-0.0509425,VALID,18.3584,VALID,33,VALID,0,
2008-12-08, 02:37:00,VALID,917.877,VALID,0,VALID,100,VALID,0.0169808,VALID,18.3487,VALID,33,VALID,0,
2008-12-08, 02:38:00,VALID,917.844,VALID,0,VALID,100,VALID,0.0169808,VALID,18.3515,VALID,28,VALID,0,
2008-12-08, 02:39:00,VALID,917.815,VALID,0,VALID,100,VALID,-0.0169808,VALID,18.3385,VALID,23,VALID,0,
2008-12-08, 02:40:00,VALID,917.792,VALID,0,VALID,100,VALID,0,VALID,18.3292,VALID,24,VALID,0.0635901,
2008-12-08, 02:41:00,VALID,917.781,VALID,0,VALID,100,VALID,-0.0169808,VALID,18.3067,VALID,28,VALID,0.0552591,
2008-12-08, 02:42:00,VALID,917.775,VALID,0,VALID,100,VALID,-0.0509425,VALID,18.2901,VALID,19,VALID,0.24628,
2008-12-08, 02:43:00,VALID,917.779,VALID,0,VALID,100,VALID,-0.0339617,VALID,18.2871,VALID,24,VALID,0.217035,
2008-12-08, 02:44:00,VALID,917.758,VALID,0,VALID,100,VALID,0,VALID,18.2838,VALID,23,VALID,0.024966,
2008-12-08, 02:45:00,VALID,917.739,VALID,0,VALID,100,VALID,0,VALID,18.2736,VALID,24,VALID,0.286086,
2008-12-08, 02:46:00,VALID,917.72,VALID,0,VALID,100,VALID,-0.0169808,VALID,18.2771,VALID,25,VALID,0.696911,
2008-12-08, 02:47:00,VALID,917.721,VALID,0,VALID,100,VALID,-0.0169808,VALID,18.2771,VALID,22,VALID,0.369549,
2008-12-08, 02:48:00,VALID,917.695,VALID,0,VALID,100,VALID,-0.0339617,VALID,18.2739,VALID,23,VALID,0,
2008-12-08, 02:49:00,VALID,917.694,VALID,0,VALID,100,VALID,-0.0339617,VALID,18.2576,VALID,23,VALID,0,
2008-12-08, 02:50:00,VALID,917.685,VALID,0,VALID,100,VALID,0,VALID,18.2609,VALID,23,VALID,0,
2008-12-08, 02:51:00,VALID,917.668,VALID,0,VALID,100,VALID,-0.0339617,VALID,18.2611,VALID,23,VALID,0,
2008-12-08, 02:52:00,VALID,917.673,VALID,0,VALID,100,VALID,-0.0169808,VALID,18.2579,VALID,23,VALID,0,
2008-12-08, 02:53:00,VALID,917.667,VALID,0,VALID,100,VALID,0,VALID,18.2442,VALID,23,VALID,0,
2008-12-08, 02:54:00,VALID,917.667,VALID,0,VALID,100,VALID,0.0169808,VALID,18.2382,VALID,23,VALID,0,
2008-12-08, 02:55:00,VALID,917.664,VALID,0,VALID,100,VALID,-0.0169808,VALID,18.2417,VALID,23,VALID,0,
2008-12-08, 02:56:00,VALID,917.657,VALID,0,VALID,100,VALID,0,VALID,18.2349,VALID,22,VALID,0,
2008-12-08, 02:57:00,VALID,917.652,VALID,0,VALID,100,VALID,0,VALID,18.2349,VALID,23,VALID,0,
2008-12-08, 02:58:00,VALID,917.651,VALID,0,VALID,100,VALID,0,VALID,18.2481,VALID,22,VALID,0,
2008-12-08, 02:59:00,VALID,917.639,VALID,0,VALID,100,VALID,0.0339617,VALID,18.2347,VALID,23,VALID,0,
2008-12-08, 03:00:00,VALID,917.619,VALID,0,VALID,100,VALID,0,VALID,18.2382,VALID,22,VALID,0,
2008-12-08, 03:01:00,VALID,917.599,VALID,0,VALID,100,VALID,0,VALID,18.2345,VALID,23,VALID,0,
2008-12-08, 03:02:00,VALID,917.573,VALID,0,VALID,100,VALID,0,VALID,18.2315,VALID,22,VALID,0,
2008-12-08, 03:03:00,VALID,917.56,VALID,0,VALID,100,VALID,0.0169808,VALID,18.2315,VALID,23,VALID,0,
2008-12-08, 03:04:00,VALID,917.546,VALID,0,VALID,100,VALID,0.0169808,VALID,18.2315,VALID,22,VALID,0,
2008-12-08, 03:05:00,VALID,917.545,VALID,0,VALID,100,VALID,0.0339617,VALID,18.2248,VALID,22,VALID,0,
2008-12-08, 03:06:00,VALID,917.539,VALID,0,VALID,100,VALID,0.0169808,VALID,18.2183,VALID,22,VALID,0,
2008-12-08, 03:07:00,VALID,917.52,VALID,0,VALID,100,VALID,0.0169808,VALID,18.2115,VALID,22,VALID,0,
2008-12-08, 03:08:00,VALID,917.524,VALID,0,VALID,100,VALID,0.0169808,VALID,18.2153,VALID,23,VALID,0,
2008-12-08, 03:09:00,VALID,917.525,VALID,0,VALID,100,VALID,0.0169808,VALID,18.2187,VALID,22,VALID,0,
2008-12-08, 03:10:00,VALID,917.526,VALID,0,VALID,100,VALID,0,VALID,18.2083,VALID,18,VALID,0,
2008-12-08, 03:11:00,VALID,917.527,VALID,0,VALID,100,VALID,0.0169808,VALID,18.2053,VALID,343,VALID,0.139482,
2008-12-08, 03:12:00,VALID,917.513,VALID,0,VALID,100,VALID,0.0679233,VALID,18.1986,VALID,343,VALID,0,
2008-12-08, 03:13:00,VALID,917.499,VALID,0,VALID,100,VALID,0.0339617,VALID,18.2051,VALID,343,VALID,0,
2008-12-08, 03:14:00,VALID,917.495,VALID,0,VALID,100,VALID,0.0339617,VALID,18.2185,VALID,343,VALID,0,
2008-12-08, 03:15:00,VALID,917.48,VALID,0,VALID,100,VALID,0.0169808,VALID,18.2153,VALID,343,VALID,0,
2008-12-08, 03:16:00,VALID,917.472,VALID,0,VALID,100,VALID,0.0339617,VALID,18.2183,VALID,343,VALID,0,
2008-12-08, 03:17:00,VALID,917.43,VALID,0,VALID,100,VALID,0.0339617,VALID,18.2115,VALID,343,VALID,0,
2008-12-08, 03:18:00,VALID,917.424,VALID,0,VALID,100,VALID,0.0679233,VALID,18.2178,VALID,343,VALID,0,
2008-12-08, 03:19:00,VALID,917.401,VALID,0,VALID,100,VALID,0,VALID,18.2046,VALID,343,VALID,0.0571646,
2008-12-08, 03:20:00,VALID,917.398,VALID,0,VALID,100,VALID,0.0679233,VALID,18.2146,VALID,343,VALID,0,
2008-12-08, 03:21:00,VALID,917.381,VALID,0,VALID,100,VALID,0.0679233,VALID,18.2113,VALID,344,VALID,0,
2008-12-08, 03:22:00,VALID,917.37,VALID,0,VALID,100,VALID,0.0169808,VALID,18.2055,VALID,344,VALID,0,
2008-12-08, 03:23:00,VALID,917.38,VALID,0,VALID,100,VALID,-0.0849042,VALID,18.1972,VALID,344,VALID,0,
2008-12-08, 03:24:00,VALID,917.368,VALID,0,VALID,100,VALID,-0.0849042,VALID,18.1868,VALID,344,VALID,0,
2008-12-08, 03:25:00,VALID,917.379,VALID,0,VALID,100,VALID,-0.0339617,VALID,18.2002,VALID,344,VALID,0,
2008-12-08, 03:26:00,VALID,917.36,VALID,0,VALID,100,VALID,-0.0339617,VALID,18.1969,VALID,344,VALID,0,
2008-12-08, 03:27:00,VALID,917.366,VALID,0,VALID,100,VALID,-0.0679233,VALID,18.1969,VALID,344,VALID,0,
2008-12-08, 03:28:00,VALID,917.361,VALID,0,VALID,100,VALID,-0.0679233,VALID,18.2002,VALID,344,VALID,0,
2008-12-08, 03:29:00,VALID,917.354,VALID,0,VALID,100,VALID,-0.0679233,VALID,18.19,VALID,344,VALID,0,
2008-12-08, 03:30:00,VALID,917.352,VALID,0,VALID,100,VALID,-0.0679233,VALID,18.2064,VALID,344,VALID,0,
2008-12-08, 03:31:00,VALID,917.323,VALID,0,VALID,100,VALID,-0.0509425,VALID,18.2132,VALID,344,VALID,0,
2008-12-08, 03:32:00,VALID,917.314,VALID,0,VALID,100,VALID,-0.0849042,VALID,18.1997,VALID,344,VALID,0,
2008-12-08, 03:33:00,VALID,917.288,VALID,0,VALID,100,VALID,-0.0339617,VALID,18.1967,VALID,344,VALID,0,
2008-12-08, 03:34:00,VALID,917.292,VALID,0,VALID,100,VALID,-0.101885,VALID,18.2071,VALID,344,VALID,0,
2008-12-08, 03:35:00,VALID,917.276,VALID,0,VALID,100,VALID,-0.0339617,VALID,18.1939,VALID,343,VALID,0,
2008-12-08, 03:36:00,VALID,917.259,VALID,0,VALID,100,VALID,-0.101885,VALID,18.174,VALID,337,VALID,0,
2008-12-08, 03:37:00,VALID,917.25,VALID,0,VALID,100,VALID,-0.101885,VALID,18.158,VALID,337,VALID,0,
2008-12-08, 03:38:00,VALID,917.237,VALID,0,VALID,100,VALID,-0.0849042,VALID,18.1518,VALID,337,VALID,0,
2008-12-08, 03:39:00,VALID,917.234,VALID,0,VALID,100,VALID,-0.101885,VALID,18.142,VALID,337,VALID,0,
2008-12-08, 03:40:00,VALID,917.241,VALID,0,VALID,100,VALID,-0.0679233,VALID,18.1455,VALID,337,VALID,0,
2008-12-08, 03:41:00,VALID,917.239,VALID,0,VALID,100,VALID,-0.101885,VALID,18.1291,VALID,337,VALID,0,
2008-12-08, 03:42:00,VALID,917.226,VALID,0,VALID,100,VALID,-0.101885,VALID,18.1388,VALID,337,VALID,0,
2008-12-08, 03:43:00,VALID,917.223,VALID,0.2,VALID,100,VALID,-0.101885,VALID,18.1325,VALID,337,VALID,0,
2008-12-08, 03:44:00,VALID,917.21,VALID,0,VALID,100,VALID,-0.0849042,VALID,18.1388,VALID,337,VALID,0,